Location: Unspecified
(0.0000°N, 0.0000°E)
Time: 19:10:59
(UTC+00:00)

Courier 1B - Pass Details

Date: 22 November 2019
Orbit: 963 x 1209 km, 28.3° (Epoch: 08 December)

Event Time Altitude Azimuth Distance (km) Brightness Sun altitude
Rises 01:25:56 0° 250° (WSW) 4,102 - -58.4°
Reaches altitude 10° 01:28:54 10° 254° (WSW) 3,125 - -57.8°
Maximum altitude 01:36:28 54° 329° (NNW) 1,384 - -56.3°
Drops below altitude 10° 01:43:41 10° 46° (NE) 2,983 - -54.9°
Sets 01:46:27 0° 50° (NE) 3,904 - -54.3°
